Temp
17 16 17 18 17 17 17 17 16 15 15 14 14 14 13 12 12 12 12 12 12 12 12 11 11 11 10 10 10 9 9 9 9 9 9 9 9 9 9 9 9 9 9
17 17 17 17 17 17 17 17 15 15 14 13 12 12 12 12 12 11 11 11 11 11 11 11 11 11 10 9 9 9 9 9 9 9 8 8 8 8 9 9 9 9 9
16 16 16 16 16 16 16 15 14 14 13 12 12 12 12 11 11 11 11 11 10 10 11 11 11 10 10 9 9 9 8 8 8 8 8 8 8 8 8 8 8 9 9
15 15 15 15 15 15 15 14 14 14 13 12 11 11 11 11 10 10 10 10 10 9 9 10 10 10 9 9 9 9 8 8 8 8 8 8 8 8 8 8 8 8 8
14 15 15 14 14 14 14 14 13 14 12 11 10 10 10 10 9 9 9 9 9 9 9 8 9 9 9 9 9 8 8 8 8 8 7 7 7 7 7 7 7 7 8
14 13 14 14 13 14 13 13 13 11 11 9 8 9 9 9 9 8 8 8 8 9 9 9 9 8 9 8 8 8 8 8 7 7 7 7 7 6 7 7 7 7 7
14 13 15 14 12 13 13 13 13 11 9 9 8 7 7 8 8 8 7 7 7 7 8 8 8 7 7 7 7 7 7 7 6 6 6 6 6 6 6 6 6 6 6
14 13 14 12 12 11 12 11 11 9 8 9 8 7 6 6 7 7 7 7 6 6 6 6 6 6 7 7 7 7 7 7 6 6 5 5 6 5 5 5 5 6 6
12 12 12 11 12 12 12 11 10 10 8 9 8 8 4 4 5 6 6 6 5 5 5 4 5 5 6 6 5 5 5 6 6 5 5 5 4 5 5 4 4 5 5
11 12 12 11 11 12 10 10 10 10 9 8 8 9 9 7 3 4 4 5 5 4 5 4 4 4 5 4 3 4 4 4 5 4 4 4 4 5 4 4 4 4 4
11 11 13 11 10 11 11 10 10 10 10 9 8 8 8 8 7 6 4 3 4 4 4 4 3 4 3 3 2 3 3 3 3 4 4 3 3 4 4 3 3 3 3
10 11 10 9 9 10 11 11 10 9 9 8 9 9 8 7 6 6 4 4 3 3 3 3 3 3 2 2 2 2 2 2 2 2 2 2 2 2 3 3 2 2 2
10 10 10 9 9 10 10 10 9 9 8 9 8 9 9 8 7 7 6 4 4 2 2 2 2 2 2 1 0 0 1 1 1 1 1 1 1 0 1 1 1 1 1
10 10 10 9 9 9 9 9 9 9 8 8 8 8 9 9 8 8 5 5 3 3 2 -0 0 2 2 1 0 -1 -1 -1 -1 -1 -1 -1 -1 -1 -0 -0 -0 -0 -0
11 10 10 10 9 9 9 9 9 8 8 8 8 8 9 9 9 8 6 5 5 3 3 -0 -1 0 1 0 -1 -1 -1 -2 -2 -2 -2 -2 -2 -2 -2 -2 -2 -2 -1
11 10 10 10 9 9 8 9 9 8 8 7 7 7 9 9 9 8 6 6 6 5 3 1 -0 -0 -1 -1 -1 -1 -2 -3 -3 -3 -3 -4 -3 -3 -3 -3 -3 -3 -3
11 10 9 9 9 9 8 9 9 8 7 7 7 7 8 9 8 7 6 5 6 5 3 1 1 -0 -1 -1 -2 -2 -3 -3 -4 -4 -4 -5 -4 -4 -4 -4 -4 -4 -5
12 11 10 9 9 8 8 8 8 8 7 7 7 7 8 9 8 8 6 5 6 5 3 -1 -2 -2 -1 -1 -1 -2 -3 -3 -4 -4 -5 -5 -5 -5 -5 -5 -5 -5 -5
9 9 9 9 8 8 8 8 8 8 7 7 7 7 7 8 7 5 5 5 5 4 2 -0 -1 -2 -2 -1 -2 -2 -3 -4 -4 -5 -5 -5 -6 -5 -5 -5 -6 -6 -6
8 8 8 8 8 7 7 7 7 7 7 7 7 8 8 8 7 5 4 5 4 3 1 0 -2 -2 -3 -3 -2 -3 -4 -4 -5 -5 -5 -5 -5 -6 -5 -5 -5 -5 -6
7 7 7 7 7 7 6 6 6 6 6 6 7 7 7 7 7 6 5 4 4 3 1 -1 -1 -2 -3 -4 -4 -4 -4 -4 -5 -5 -5 -5 -6 -6 -6 -5 -5 -5 -6
5 6 6 6 5 5 6 6 7 6 6 6 6 6 6 7 7 8 7 8 6 3 -0 -0 -1 -1 -2 -3 -4 -4 -4 -5 -5 -5 -4 -5 -5 -5 -5 -5 -5 -6 -6
5 4 4 4 4 5 5 6 6 5 4 4 4 4 4 5 6 6 6 6 5 5 7 4 -0 -1 -2 -2 -2 -4 -4 -4 -3 -3 -4 -5 -5 -5 -5 -5 -6 -6 -6
3 3 3 3 3 2 3 4 4 3 2 2 4 4 5 4 4 4 5 2 1 1 2 2 2 -0 -0 -1 0 -0 -2 -3 -3 -4 -4 -5 -5 -5 -5 -5 -6 -6 -6
1 1 2 1 1 1 2 3 2 1 2 1 2 4 5 4 3 4 2 -0 -0 0 1 2 2 1 1 0 0 -0 -3 -3 -5 -5 -4 -4 -5 -5 -5 -5 -5 -6 -6
-1 -1 -0 -0 0 0 3 3 3 2 0 -0 0 1 3 3 3 3 2 1 -1 -1 0 -1 -1 -1 -0 -0 -0 -0 -1 -3 -4 -5 -5 -4 -5 -5 -6 -6 -6 -6 -7
Height
781 786 788 793 796 802 807 809 813 817 821 822 823 824 829 833 837 840 845 848 848 849 849 851 854 856 859 859 860 862 861 861 861 860 859 859 859 858 858 857 856 854 853
774 779 784 786 792 797 803 808 809 815 818 823 826 827 829 833 839 841 845 848 850 852 851 852 855 856 861 862 862 863 864 864 863 863 862 862 862 861 860 860 859 857 856
768 773 777 781 786 793 800 805 808 812 817 822 826 829 831 835 839 843 846 848 851 852 853 854 856 857 862 863 864 865 866 866 866 866 865 865 864 864 863 862 861 860 858
763 767 772 776 783 789 796 802 804 809 815 820 825 829 833 836 841 843 847 849 850 852 854 855 856 857 861 865 865 867 868 869 868 867 868 867 866 866 865 865 865 863 862
758 761 767 773 779 784 791 799 804 806 811 819 825 828 831 835 841 845 847 850 852 853 854 857 859 859 859 865 866 869 869 870 870 870 870 870 869 869 868 868 867 866 865
747 753 760 768 775 781 787 795 800 805 809 816 826 830 834 837 840 844 849 852 853 854 856 859 860 862 862 862 866 870 870 872 872 871 872 873 872 871 871 870 870 868 867
740 748 752 762 770 773 780 788 794 801 809 814 821 834 839 841 842 845 848 853 855 857 858 860 861 861 861 866 868 870 871 872 873 872 873 875 876 874 874 873 871 871 869
735 738 741 753 763 773 777 785 788 798 808 808 817 827 840 847 844 846 849 852 854 858 861 861 864 864 862 865 868 872 873 874 875 876 875 876 877 877 876 875 874 874 872
736 732 737 743 755 764 770 777 783 788 797 804 808 811 834 838 841 846 849 852 855 859 862 863 866 864 866 867 869 872 873 874 877 877 877 877 878 880 878 877 876 876 874
725 732 729 739 746 753 764 768 775 782 789 793 807 805 808 813 831 843 847 850 853 859 860 865 864 866 866 868 871 872 872 875 879 879 879 879 880 881 880 879 878 878 877
725 732 729 738 742 746 753 758 766 773 780 787 794 800 805 811 815 821 837 848 851 857 860 862 865 864 867 869 871 873 874 875 877 880 881 881 882 882 882 882 881 880 879
724 729 732 736 730 736 744 749 757 764 770 779 786 792 797 804 809 814 825 839 845 855 858 860 863 867 869 871 872 873 876 877 879 881 881 882 882 882 883 884 884 882 882
717 719 723 728 727 731 740 739 750 754 763 770 778 786 792 799 806 809 816 831 840 854 857 861 862 864 868 870 873 876 877 878 879 880 883 884 883 882 883 885 885 885 884
710 714 718 723 727 728 735 745 738 745 753 764 771 780 787 795 801 804 810 818 842 849 852 858 862 864 865 870 872 877 879 879 880 882 881 883 884 884 884 885 885 885 886
704 703 706 711 717 726 734 734 739 746 749 755 764 773 781 788 796 800 805 811 811 832 842 850 856 862 864 867 871 874 877 881 880 883 883 881 883 884 884 885 885 886 887
699 701 700 702 709 717 724 731 738 739 746 756 761 765 775 782 790 796 800 807 810 812 829 837 845 853 863 867 873 877 877 880 882 880 883 883 883 884 884 884 885 889 889
691 695 697 699 702 707 713 721 728 734 737 742 757 764 770 778 784 793 798 805 808 813 821 834 843 851 857 862 868 875 876 880 881 882 881 884 886 886 884 882 886 890 891
683 687 689 693 697 701 705 709 716 723 733 738 751 754 763 775 779 788 797 801 802 812 815 828 843 851 856 863 866 871 876 880 880 882 883 884 887 887 885 886 888 888 892
676 678 681 684 690 692 697 700 707 714 721 730 738 746 754 763 775 782 790 797 802 813 821 825 838 849 857 861 867 871 875 879 881 885 884 886 887 887 885 887 889 890 890
671 671 674 675 680 684 688 693 699 705 711 719 728 737 748 757 767 778 784 792 797 811 820 830 835 844 852 859 863 865 872 877 881 884 886 886 888 889 889 888 889 891 890
664 666 669 670 673 677 681 686 694 698 705 714 722 733 744 755 762 771 779 789 794 803 816 825 832 838 848 854 856 860 866 873 879 881 884 887 887 888 889 889 890 891 891
660 661 662 665 669 672 675 681 688 696 702 711 719 732 743 752 758 765 777 782 790 797 809 819 824 832 838 845 854 857 863 869 879 878 882 885 886 887 889 891 890 890 890
654 654 657 661 666 668 672 676 684 691 699 705 715 727 739 745 754 764 772 781 790 797 796 804 814 825 831 835 845 853 859 866 869 872 878 881 883 886 889 891 892 891 890
650 651 656 660 662 666 668 674 680 687 697 705 712 722 733 743 753 761 765 784 790 796 799 805 812 820 824 833 841 845 856 864 868 871 875 878 880 884 888 890 890 891 893
652 653 657 660 664 669 671 675 681 690 697 706 715 724 733 741 747 758 769 784 789 796 802 808 814 821 828 834 838 846 856 861 867 870 873 875 878 882 886 888 889 888 893
657 658 660 664 666 670 674 679 686 694 704 712 720 726 734 742 751 759 770 779 787 794 798 807 815 822 831 837 838 845 851 857 861 868 870 874 876 881 885 886 886 888 891
Wind_Speed
38 35 31 26 27 25 26 28 27 24 24 29 31 33 32 31 30 30 26 22 21 20 21 21 20 20 17 17 16 16 16 16 16 17 17 16 17 17 17 17 17 17 17
42 39 35 33 30 29 29 29 25 25 28 29 30 31 32 31 30 31 29 25 20 18 20 20 19 18 16 15 16 15 15 15 17 16 17 17 17 17 17 17 17 18 19
44 41 40 36 35 33 32 27 25 29 30 29 29 30 30 30 30 29 27 26 25 23 21 20 19 19 17 16 15 15 15 15 16 16 16 16 16 15 16 17 18 18 19
45 43 41 39 36 35 36 29 32 34 33 31 30 30 28 28 28 27 24 25 24 24 24 23 21 21 18 16 15 15 15 15 15 17 17 16 17 18 18 17 17 18 19
44 42 41 38 38 38 38 35 33 35 37 32 32 32 30 28 25 22 21 21 21 22 23 23 22 21 20 17 16 15 15 15 16 16 17 17 17 18 18 17 17 18 17
45 45 42 40 39 40 38 38 36 34 37 33 28 29 26 24 22 20 20 19 20 19 21 20 21 22 19 20 18 15 15 14 15 16 16 16 17 17 17 18 19 18 19
45 43 43 42 43 46 42 41 40 38 34 37 31 25 21 19 20 21 20 18 18 19 23 24 22 24 24 19 17 16 16 15 14 16 16 15 15 16 17 16 16 17 17
49 49 48 48 44 33 36 38 41 31 28 37 22 18 4 8 17 19 19 19 19 19 19 19 18 20 24 24 19 13 12 14 13 14 14 14 13 13 14 15 15 15 16
37 43 45 46 48 46 42 44 43 39 33 32 42 12 3 4 14 17 21 22 22 20 18 17 18 20 21 19 19 16 14 15 13 13 14 15 14 15 14 15 15 15 15
31 39 40 44 49 48 40 45 44 40 36 35 35 10 10 19 4 4 17 24 24 24 21 17 16 16 16 13 15 17 18 17 14 14 14 14 14 14 14 15 15 14 15
34 31 43 41 40 46 47 43 42 39 39 36 35 21 15 18 14 8 8 15 24 27 22 20 17 18 14 14 19 20 20 19 15 13 13 14 14 13 13 13 14 15 15
32 38 29 35 34 43 46 47 45 40 40 36 38 30 26 15 14 12 6 20 18 25 23 22 21 16 14 15 18 19 19 17 15 14 14 13 13 14 13 13 13 15 15
25 36 41 38 39 36 37 46 43 42 42 40 42 35 31 27 26 18 25 22 13 17 13 21 21 20 17 17 17 16 18 17 16 15 14 13 13 14 14 12 13 13 14
33 34 40 41 41 40 33 30 41 42 42 39 39 37 32 32 28 29 27 35 9 11 13 10 23 23 19 17 17 18 18 16 15 14 15 14 14 13 13 13 13 13 13
33 31 35 38 36 42 43 43 37 35 39 42 37 39 36 34 30 34 35 40 29 8 6 18 12 27 23 19 20 21 19 15 15 14 14 15 14 13 13 13 13 12 12
33 34 36 37 36 36 38 38 36 37 36 34 34 37 35 35 33 35 39 35 22 15 6 18 15 34 28 23 19 19 19 16 15 15 13 13 13 13 13 14 13 11 11
33 35 36 39 41 42 41 43 37 34 38 38 34 33 33 31 35 36 35 29 26 18 17 21 26 38 33 29 25 20 18 17 15 13 12 12 13 13 14 15 12 11 10
35 35 37 35 35 36 41 44 40 39 38 38 38 34 34 33 37 38 36 32 33 23 29 28 26 32 34 29 27 23 20 16 14 13 12 13 12 12 13 13 11 10 9
33 31 34 37 37 39 43 45 43 40 40 39 42 40 39 37 36 35 35 32 31 22 27 26 24 28 31 31 29 23 20 18 14 13 13 12 12 12 13 11 9 8 8
32 30 33 37 40 41 40 39 38 36 38 44 45 45 44 40 38 39 35 36 33 30 27 27 31 30 31 33 32 31 25 21 18 15 12 12 10 11 11 10 10 8 8
29 31 32 39 42 43 41 39 39 44 43 44 43 39 39 43 47 49 41 37 39 34 31 29 28 28 25 30 29 28 29 25 21 19 15 14 13 9 7 7 7 7 8
29 32 33 38 37 34 42 46 44 41 42 41 39 38 45 43 39 41 43 35 43 40 32 27 24 29 30 31 28 33 31 24 10 20 19 17 13 10 5 2 5 5 8
29 29 31 33 33 33 42 47 47 43 40 41 43 43 40 41 37 36 39 34 38 43 41 47 37 35 33 42 38 34 31 27 12 15 24 20 17 12 9 7 4 3 4
22 24 23 23 29 31 44 47 45 41 38 39 47 45 43 38 39 33 27 32 36 36 36 36 39 37 36 42 41 37 34 24 12 17 21 10 17 15 12 10 7 5 3
17 21 25 27 28 32 45 47 41 35 36 34 38 41 39 35 30 28 36 36 33 29 28 31 30 33 31 40 38 32 31 26 9 14 18 7 13 15 13 11 9 8 7
17 21 23 25 30 33 37 33 31 31 31 31 31 32 32 33 35 41 45 41 36 31 29 26 27 28 29 33 30 29 33 25 14 7 18 12 15 12 5 9 11 10 11
Wind_Direction
188 187 189 193 194 183 181 171 162 162 163 158 155 152 146 140 136 131 127 126 125 124 117 114 111 107 100 95 92 86 86 84 83 80 77 74 70 68 63 59 56 54 50
195 194 190 190 191 183 181 173 164 167 166 162 153 151 146 142 142 138 137 130 126 127 123 121 118 111 104 99 95 90 87 88 85 82 78 74 70 68 66 60 59 58 54
199 194 192 188 185 182 176 174 165 165 161 159 156 153 150 147 146 144 141 137 127 118 126 125 121 116 112 105 100 94 91 89 87 83 78 73 69 67 65 61 59 57 53
203 195 195 188 183 176 174 173 163 162 163 161 156 155 155 155 152 150 149 148 143 129 119 118 122 118 116 109 105 102 98 94 89 85 80 76 71 70 65 62 58 53 50
203 199 195 189 182 178 176 173 166 165 160 161 159 157 156 154 156 156 153 155 151 145 133 124 120 122 119 114 108 104 100 97 91 86 81 78 76 71 67 64 60 55 53
203 197 192 187 182 179 175 175 170 161 159 148 141 150 152 155 161 158 155 154 154 157 154 152 145 122 123 117 113 111 103 99 95 90 82 81 75 72 70 66 61 57 54
199 195 189 187 184 181 177 177 170 157 145 149 128 119 131 152 154 154 154 156 160 164 152 158 154 142 125 116 113 110 107 102 97 94 89 85 76 74 71 63 63 60 55
198 194 190 184 181 178 173 175 168 151 153 150 147 121 132 119 148 164 164 161 159 158 159 166 162 148 139 136 126 116 115 109 103 97 93 92 84 82 77 70 68 61 58
195 192 185 182 186 188 183 182 175 169 165 174 163 140 141 186 145 166 175 173 167 162 158 161 164 154 150 145 133 126 124 116 113 107 98 91 88 86 78 72 69 65 60
205 192 194 191 191 188 184 183 180 181 176 178 185 184 162 144 164 151 167 171 180 178 170 168 165 168 178 171 150 141 134 126 116 108 99 94 94 87 80 73 67 66 64
221 207 215 198 191 186 186 181 184 186 187 180 184 176 160 159 143 145 155 164 160 170 178 179 171 157 158 161 151 147 144 130 122 115 109 99 95 91 82 74 68 66 65
205 211 205 199 200 187 188 187 190 188 186 188 187 188 172 168 170 155 138 162 148 167 170 174 169 168 164 161 153 154 150 137 125 118 113 106 98 91 85 77 70 65 65
204 210 215 204 201 203 200 188 190 187 189 188 191 193 195 185 180 157 147 157 151 159 157 175 175 169 169 165 153 150 151 142 128 120 117 111 103 95 93 87 78 68 65
224 210 211 211 208 200 209 212 187 188 191 192 192 193 196 194 190 172 158 151 129 158 159 157 177 177 174 168 161 156 153 143 134 124 120 113 106 101 94 89 83 76 68
237 231 224 216 206 202 203 199 197 199 192 191 193 191 197 198 198 190 168 166 156 160 169 172 163 181 175 171 168 165 152 143 135 131 123 115 109 107 102 95 86 81 78
227 228 226 220 213 205 202 203 203 193 192 198 197 189 193 199 196 191 175 176 178 144 160 166 166 175 172 167 168 164 150 145 144 137 125 118 113 110 105 96 85 80 79
234 224 217 213 208 205 202 199 201 198 190 190 197 191 191 196 191 188 178 178 174 160 144 141 166 173 171 166 161 158 159 156 147 140 132 123 116 112 106 100 96 88 79
237 233 222 213 210 206 202 199 198 194 192 187 188 182 189 195 193 191 181 175 173 172 146 140 155 163 170 171 165 163 159 161 148 141 133 123 122 116 106 107 106 96 82
237 232 223 212 209 202 200 200 197 192 189 187 183 182 188 190 182 177 174 172 171 165 151 152 155 159 163 171 167 164 163 158 153 151 142 133 126 117 112 110 107 104 97
244 239 225 214 206 202 198 196 193 186 180 181 180 187 188 189 187 180 171 173 163 162 154 151 150 153 162 174 174 163 163 166 159 167 160 155 143 129 105 88 85 79 77
248 244 230 214 204 199 191 185 182 178 176 180 182 185 190 197 192 187 177 169 171 164 161 157 158 157 166 169 173 171 165 168 173 175 174 171 168 164 136 92 99 76 69
228 225 210 204 193 194 192 192 193 184 180 179 174 184 179 178 182 183 188 189 185 173 163 164 164 171 175 175 176 171 167 163 178 194 193 190 188 195 194 154 127 93 75
214 205 196 189 189 189 191 198 190 174 164 163 163 163 162 165 165 174 181 185 192 202 203 186 172 181 173 182 178 173 173 172 170 184 194 198 199 212 212 201 187 161 90
194 183 177 175 171 171 173 171 164 156 155 157 163 165 168 162 167 167 165 180 178 182 182 183 187 180 182 181 188 183 182 175 173 175 189 184 201 216 214 212 214 215 199
157 158 162 158 155 154 159 161 149 142 147 149 156 164 169 170 174 184 169 165 169 172 181 191 191 188 186 185 185 179 176 170 145 174 187 180 189 201 214 222 224 216 230
139 143 142 145 145 146 164 159 161 154 146 147 158 160 171 171 176 179 177 166 153 158 162 163 166 170 176 178 183 195 189 171 151 157 194 179 169 176 181 224 222 217 227